N5AJY Weather Reports


time (UTC)temp
F
wind
direction
speed
knots
gust
knots
rain 1hr
in
rain 24hr
in
rain mn
in
humidity
%
barometer
mb
20260507142654 62 0 0.0 0.0 0.00 0.00 0.00 54 1016.0
20260507142153 61 0 0.0 0.0 0.00 0.00 0.00 54 1016.0
20260507141654 61 0 0.0 0.0 0.00 0.00 0.00 54 1016.0
20260507141155 61 0 0.0 0.0 0.00 0.00 0.00 56 1015.9
20260507140654 61 0 0.0 0.0 0.00 0.00 0.00 56 1016.0
20260507140153 61 0 0.0 0.0 0.00 0.00 0.00 58 1015.9
20260507135154 60 0 0.0 0.0 0.00 0.00 0.00 63 1015.9
20260507134653 59 0 0.0 0.0 0.00 0.00 0.00 61 1015.9
20260507133653 58 0 0.0 0.0 0.00 0.00 0.00 63 1015.9
20260507133154 57 0 0.0 0.0 0.00 0.00 0.00 66 1015.9
20260507132152 56 0 0.0 0.0 0.00 0.00 0.00 68 1015.8
20260507130654 54 0 0.0 0.0 0.00 0.00 0.00 75 1015.7
20260507130159 53 0 0.0 0.0 0.00 0.00 0.00 76 1015.7
20260507125659 51 0 0.0 0.0 0.00 0.00 0.00 81 1015.6
20260507125153 50 0 0.0 0.0 0.00 0.00 0.00 83 1015.5
20260507124654 49 0 0.0 0.0 0.00 0.00 0.00 86 1015.5
20260507124153 48 0 0.0 0.0 0.00 0.00 0.00 91 1015.5
20260507123654 47 0 0.0 0.0 0.00 0.00 0.00 92 1015.4
20260507123153 46 0 0.0 0.0 0.00 0.00 0.00 94 1015.5
20260507122653 45 0 0.0 0.0 0.00 0.00 0.00 94 1015.4
20260507122154 44 0 0.0 0.0 0.00 0.00 0.00 93 1015.3
20260507121156 43 0 0.0 0.0 0.00 0.00 0.00 93 1015.3
20260507120713 42 0 0.0 0.0 0.00 0.00 0.00 91 1015.3
20260507120240 42 0 0.0 0.0 0.00 0.00 0.00 91 1015.3
20260507115248 42 0 0.0 0.0 0.00 0.00 0.00 91 1015.3
20260507114216 42 0 0.0 0.0 0.00 0.00 0.00 91 1015.2
20260507112732 42 0 0.0 0.0 0.00 0.00 0.00 91 1015.0
20260507111655 42 0 0.0 0.0 0.00 0.00 0.00 91 1015.0
20260507111153 42 0 0.0 0.0 0.00 0.00 0.00 91 1015.1
20260507110723 42 0 0.0 0.0 0.00 0.00 0.00 91 1014.9
20260507110308 42 0 0.0 0.0 0.00 0.00 0.00 91 1014.8
20260507105710 42 0 0.0 0.0 0.00 0.00 0.00 91 1014.7
20260507105316 42 0 0.0 0.0 0.00 0.00 0.00 91 1014.6
20260507104654 42 0 0.0 0.0 0.00 0.00 0.00 91 1014.6
20260507104205 42 0 0.0 0.0 0.00 0.00 0.00 91 1014.7
20260507103751 42 0 0.0 0.0 0.00 0.00 0.00 91 1014.7
20260507102707 42 0 0.0 0.0 0.00 0.00 0.00 90 1014.9
20260507102218 42 0 0.0 0.0 0.00 0.00 0.00 89 1014.8
20260507101719 42 0 0.0 0.0 0.00 0.00 0.00 89 1014.8
20260507101154 42 0 0.0 0.0 0.00 0.00 0.00 89 1014.7
20260507100653 42 0 0.0 0.0 0.00 0.00 0.00 89 1014.6
20260507100219 42 0 0.0 0.0 0.00 0.00 0.00 89 1014.7
20260507095155 42 0 0.0 0.0 0.00 0.00 0.00 88 1014.6
20260507094653 42 0 0.0 0.0 0.00 0.00 0.00 87 1014.4
20260507094154 43 0 0.0 0.0 0.00 0.00 0.00 87 1014.4
20260507093656 43 0 0.0 0.0 0.00 0.00 0.00 87 1014.5
20260507093152 43 0 0.0 0.0 0.00 0.00 0.00 86 1014.7
20260507092656 43 0 0.0 0.0 0.00 0.00 0.00 86 1014.7
20260507092155 43 0 0.0 0.0 0.00 0.00 0.00 86 1014.8
20260507091657 44 0 0.0 0.0 0.00 0.00 0.00 85 1014.5
20260507091153 44 0 0.0 0.0 0.00 0.00 0.00 85 1014.6
20260507090654 44 0 0.0 0.0 0.00 0.00 0.00 85 1014.8
20260507090154 44 0 0.0 0.0 0.00 0.00 0.00 85 1014.9
20260507085654 44 0 0.0 0.0 0.00 0.00 0.00 85 1014.8
20260507085155 44 0 0.0 0.0 0.00 0.00 0.00 85 1014.9
20260507084656 44 0 0.0 0.0 0.00 0.00 0.00 85 1015.1
20260507084153 44 0 0.0 0.0 0.00 0.00 0.00 84 1015.1
20260507083654 44 0 0.0 0.0 0.00 0.00 0.00 84 1014.9
20260507083153 44 0 0.0 0.0 0.00 0.00 0.00 84 1014.9
20260507082154 44 0 0.0 0.0 0.00 0.00 0.00 83 1014.8
20260507081653 44 0 0.0 0.0 0.00 0.00 0.00 83 1014.8
20260507081158 45 0 0.0 0.0 0.00 0.00 0.00 83 1014.7
20260507080654 45 0 0.0 0.0 0.00 0.00 0.00 82 1014.8
20260507080154 45 0 0.0 0.0 0.00 0.00 0.00 82 1015.1
20260507075653 45 0 0.0 0.0 0.00 0.00 0.00 81 1014.9
20260507075154 46 0 0.0 0.0 0.00 0.00 0.00 81 1014.7
20260507074653 46 0 0.0 0.0 0.00 0.00 0.00 80 1014.8
20260507074158 46 0 0.0 0.0 0.00 0.00 0.00 79 1014.7
20260507073653 46 0 0.0 0.0 0.00 0.00 0.00 79 1014.8
20260507073152 46 0 0.0 0.0 0.00 0.00 0.00 79 1014.8
20260507072655 46 0 0.0 0.0 0.00 0.00 0.00 79 1014.8
20260507072153 47 0 0.0 0.0 0.00 0.00 0.00 79 1015.1
20260507071654 47 0 0.0 0.0 0.00 0.00 0.00 78 1015.1
20260507071153 47 0 0.0 0.0 0.00 0.00 0.00 78 1014.8
20260507070654 47 0 0.0 0.0 0.00 0.00 0.00 77 1015.0
20260507070153 47 0 0.0 0.0 0.00 0.00 0.00 77 1015.2
20260507065654 47 0 0.0 0.0 0.00 0.00 0.00 77 1015.2
20260507065153 47 0 0.0 0.0 0.00 0.00 0.00 77 1015.2
20260507064653 48 0 0.0 0.0 0.00 0.00 0.00 76 1015.3
20260507064153 48 0 0.0 0.0 0.00 0.00 0.00 76 1015.2
20260507063653 48 0 0.0 0.0 0.00 0.00 0.00 76 1015.1
20260507063154 48 0 0.0 0.0 0.00 0.00 0.00 76 1015.1
20260507062656 48 0 0.0 0.0 0.00 0.00 0.00 76 1015.1
20260507062153 48 0 0.0 0.0 0.00 0.00 0.00 76 1015.0
20260507061654 48 0 0.0 0.0 0.00 0.00 0.00 75 1014.8
20260507061153 48 0 0.0 0.0 0.00 0.00 0.00 75 1014.7
20260507060653 48 0 0.0 0.0 0.00 0.00 0.00 75 1014.8
20260507060154 49 0 0.0 0.0 0.00 0.00 0.00 74 1014.9
20260507055653 49 0 0.0 0.0 0.00 0.00 0.00 74 1014.9
20260507055154 49 0 0.0 0.0 0.00 0.00 0.00 74 1015.0
20260507054653 49 0 0.0 0.0 0.00 0.00 0.00 74 1015.0
20260507054154 49 0 0.0 0.0 0.00 0.00 0.00 74 1014.8
20260507053653 49 0 0.0 0.0 0.00 0.00 0.00 74 1014.8
20260507053154 49 0 0.0 0.0 0.00 0.00 0.00 73 1014.8
20260507052656 49 0 0.0 0.0 0.00 0.00 0.00 73 1014.7
20260507052153 50 0 0.0 0.0 0.00 0.00 0.00 72 1014.5
20260507051654 50 0 0.0 0.0 0.00 0.00 0.00 72 1014.7
20260507051152 50 0 0.0 0.0 0.00 0.00 0.00 72 1014.6
20260507050653 50 0 0.0 0.0 0.00 0.00 0.00 72 1014.5
20260507050153 50 0 0.0 0.0 0.00 0.00 0.00 71 1014.5
20260507045659 50 0 0.0 0.0 0.00 0.00 0.00 71 1014.6
20260507045152 50 0 0.0 0.0 0.00 0.00 0.00 71 1014.7
20260507044654 50 0 0.0 0.0 0.00 0.00 0.00 71 1014.6
20260507044153 50 0 0.0 0.0 0.00 0.00 0.00 71 1014.5
20260507043654 50 0 0.0 0.0 0.00 0.00 0.00 71 1014.6
20260507042700 51 0 0.0 0.0 0.00 0.00 0.00 71 1014.6
20260507042153 51 0 0.0 0.0 0.00 0.00 0.00 71 1014.5
20260507041653 50 0 0.0 0.0 0.00 0.00 0.00 71 1014.6
20260507041153 50 0 0.0 0.0 0.00 0.00 0.00 72 1014.7
20260507040654 50 0 0.0 0.0 0.00 0.00 0.00 72 1014.7
20260507040154 50 0 0.0 0.0 0.00 0.00 0.00 72 1014.6
20260507035654 50 0 0.0 0.0 0.00 0.00 0.00 72 1014.6
20260507035154 50 0 0.0 0.0 0.00 0.00 0.00 72 1014.5
20260507034654 50 0 0.0 0.0 0.00 0.00 0.00 72 1014.5
20260507034154 50 0 0.0 0.0 0.00 0.00 0.00 72 1014.5
20260507033653 51 0 0.0 0.0 0.00 0.00 0.00 72 1014.4
20260507033154 51 0 0.0 0.0 0.00 0.00 0.00 72 1014.3
20260507032653 51 0 0.0 0.0 0.00 0.00 0.00 71 1014.3
20260507032152 51 0 0.0 0.0 0.00 0.00 0.00 71 1014.3
20260507031654 52 0 0.0 0.0 0.00 0.00 0.00 70 1014.2
20260507030654 52 0 0.0 0.0 0.00 0.00 0.00 69 1014.2
20260507030153 52 0 0.0 0.0 0.00 0.00 0.00 69 1014.2
20260507025655 53 0 0.0 0.0 0.00 0.00 0.00 68 1014.1
20260507025154 53 0 0.0 0.0 0.00 0.00 0.00 68 1014.0
20260507024654 53 0 0.0 0.0 0.00 0.00 0.00 67 1014.0
20260507024153 53 0 0.0 0.0 0.00 0.00 0.00 66 1014.0
20260507023659 53 0 0.0 0.0 0.00 0.00 0.00 66 1013.9
20260507023153 53 0 0.0 0.0 0.00 0.00 0.00 66 1013.9
20260507022653 54 0 0.0 0.0 0.00 0.00 0.00 66 1013.8
20260507022153 54 0 0.0 0.0 0.00 0.00 0.00 66 1013.8
20260507021652 54 0 0.0 0.0 0.00 0.00 0.00 66 1013.8
20260507021153 54 0 0.0 0.0 0.00 0.00 0.00 66 1013.7
20260507020652 54 0 0.0 0.0 0.00 0.00 0.00 65 1013.6
20260507020155 54 0 0.0 0.0 0.00 0.00 0.00 64 1013.5
20260507015653 55 0 0.0 0.0 0.00 0.00 0.00 63 1013.4
20260507015154 55 0 0.0 0.0 0.00 0.00 0.00 63 1013.4
20260507014654 56 0 0.0 0.0 0.00 0.00 0.00 62 1013.4
20260507014154 56 0 0.0 0.0 0.00 0.00 0.00 61 1013.3
20260507013653 56 0 0.0 0.0 0.00 0.00 0.00 60 1013.1
20260507013152 57 0 0.0 0.0 0.00 0.00 0.00 60 1013.1
20260507012654 57 0 0.0 0.0 0.00 0.00 0.00 59 1013.0
20260507012153 57 0 0.0 0.0 0.00 0.00 0.00 58 1013.0
20260507011654 58 0 0.0 0.0 0.00 0.00 0.00 56 1013.0
20260507011153 58 0 0.0 0.0 0.00 0.00 0.00 56 1012.9
20260507010655 59 0 0.0 0.0 0.00 0.00 0.00 55 1012.9
20260507010154 59 0 0.0 0.0 0.00 0.00 0.00 54 1012.9
20260507005654 59 0 0.0 0.0 0.00 0.00 0.00 53 1012.8
20260507004653 60 0 0.0 0.0 0.00 0.00 0.00 50 1012.7
20260507004154 60 0 0.0 0.0 0.00 0.00 0.00 50 1012.7
20260507003653 60 0 0.0 0.0 0.00 0.00 0.00 49 1012.6
20260507003154 60 0 0.0 0.0 0.00 0.00 0.00 48 1012.6
20260507002653 61 0 0.0 0.0 0.00 0.00 0.00 50 1012.6
20260507002154 61 0 0.0 0.0 0.00 0.00 0.00 50 1012.5
20260507001653 61 0 0.0 0.0 0.00 0.00 0.00 50 1012.5
20260507001154 61 0 0.0 0.0 0.00 0.00 0.00 49 1012.5
20260507000653 61 0 0.0 0.0 0.00 0.00 0.00 49 1012.4
20260507000154 61 0 0.0 0.0 0.00 0.00 0.00 48 1012.4
20260506235653 62 0 0.0 0.0 0.00 0.00 0.00 49 1012.4
20260506235153 62 0 0.0 0.0 0.00 0.00 0.00 48 1012.4
20260506234654 62 0 0.0 0.0 0.00 0.00 0.00 47 1012.4
20260506234153 62 0 0.0 0.0 0.00 0.00 0.00 46 1012.4
20260506233734 62 0 0.0 0.0 0.00 0.00 0.00 47 1012.4
20260506233654 62 0 0.0 0.0 0.00 0.00 0.00 47 1012.4
20260506233154 62 0 0.0 0.0 0.00 0.00 0.00 46 1012.4
20260506232654 62 0 0.0 0.0 0.00 0.00 0.00 47 1012.2
20260506232153 62 0 0.0 0.0 0.00 0.00 0.00 48 1012.2
20260506231654 62 0 0.0 0.0 0.00 0.00 0.00 49 1012.1
20260506231153 62 0 0.0 0.0 0.00 0.00 0.00 49 1012.1
20260506230654 62 58 0.0 0.9 0.00 0.00 0.00 50 1012.1
20260506230153 62 58 0.0 0.9 0.00 0.00 0.00 49 1012.0
20260506225654 63 0 0.0 0.0 0.00 0.00 0.00 50 1012.0
20260506225153 62 32 0.0 0.9 0.00 0.00 0.00 49 1011.9
20260506224654 62 32 0.0 0.9 0.00 0.00 0.00 51 1011.9
20260506223652 62 0 0.0 0.0 0.00 0.00 0.00 51 1011.8
20260506223153 63 0 0.0 0.0 0.00 0.00 0.00 50 1011.8
20260506222653 63 0 0.0 0.0 0.00 0.00 0.00 50 1011.6
20260506222154 63 31 0.0 0.9 0.00 0.00 0.00 51 1011.7
20260506221653 62 31 0.0 0.9 0.00 0.00 0.00 51 1011.6
20260506221154 63 0 0.0 0.0 0.00 0.00 0.00 49 1011.6
20260506220653 63 0 0.0 0.0 0.00 0.00 0.00 51 1011.5
20260506220154 63 0 0.0 0.0 0.00 0.00 0.00 51 1011.5
20260506215653 63 0 0.0 0.0 0.00 0.00 0.00 52 1011.4
20260506215154 63 0 0.0 0.0 0.00 0.00 0.00 51 1011.4
20260506214653 63 0 0.0 0.0 0.00 0.00 0.00 51 1011.5
20260506214152 62 8 0.0 0.9 0.00 0.00 0.00 50 1011.4
20260506213653 63 8 0.0 0.9 0.00 0.00 0.00 49 1011.5
20260506213154 63 0 0.0 0.0 0.00 0.00 0.00 53 1011.5
20260506212654 62 29 0.0 1.7 0.00 0.00 0.00 52 1011.6
20260506212152 62 22 0.0 1.7 0.00 0.00 0.00 53 1011.6
20260506211653 62 14 0.0 0.9 0.00 0.00 0.00 51 1011.6
20260506211154 62 0 0.0 0.0 0.00 0.00 0.00 50 1011.6
20260506210652 61 0 0.0 0.0 0.00 0.00 0.00 51 1011.8
20260506210154 62 0 0.0 0.0 0.00 0.00 0.00 52 1011.9
20260506205653 62 16 0.0 1.7 0.00 0.00 0.00 53 1012.0
20260506205154 62 31 0.0 1.7 0.00 0.00 0.00 53 1012.0
20260506204653 62 47 0.0 0.9 0.00 0.00 0.00 52 1012.1
20260506204154 62 54 0.0 0.9 0.00 0.00 0.00 53 1012.1
20260506203654 62 53 0.0 2.6 0.00 0.00 0.00 53 1012.3
20260506203154 62 53 0.0 2.6 0.00 0.00 0.00 51 1012.3
20260506202654 62 0 0.0 0.0 0.00 0.00 0.00 53 1012.3
20260506202155 61 6 0.0 3.5 0.00 0.00 0.00 55 1012.3
20260506201653 61 6 0.0 3.5 0.00 0.00 0.00 54 1012.3
20260506201154 61 43 0.0 0.9 0.00 0.00 0.00 55 1012.4
20260506200653 61 43 0.0 0.9 0.00 0.00 0.00 54 1012.4
20260506200154 61 92 0.0 0.9 0.00 0.00 0.00 53 1012.4
20260506195154 62 0 0.0 0.0 0.00 0.00 0.00 54 1012.3
20260506194654 61 0 0.0 0.0 0.00 0.00 0.00 56 1012.5
20260506194154 62 0 0.0 0.0 0.00 0.00 0.00 54 1012.4
20260506193653 62 0 0.0 0.0 0.00 0.00 0.00 55 1012.4
20260506193152 61 0 0.0 0.0 0.00 0.00 0.00 56 1012.5
20260506192654 61 0 0.0 0.0 0.00 0.00 0.00 55 1012.5
20260506192152 61 0 0.0 0.0 0.00 0.00 0.00 56 1012.7
20260506191655 61 0 0.0 0.0 0.00 0.00 0.00 56 1012.9
20260506191154 61 0 0.0 0.0 0.00 0.00 0.00 58 1013.0
20260506190653 61 39 0.0 0.9 0.00 0.00 0.00 58 1013.0
20260506190155 60 42 0.0 0.9 0.00 0.00 0.00 55 1013.1
20260506185653 61 46 0.0 0.9 0.00 0.00 0.00 56 1013.0
20260506185153 60 0 0.0 0.0 0.00 0.00 0.00 56 1012.9
20260506184653 61 0 0.0 0.0 0.00 0.00 0.00 56 1013.2
20260506184153 61 0 0.0 0.0 0.00 0.00 0.00 56 1013.2
20260506183654 61 0 0.0 0.0 0.00 0.00 0.00 53 1013.2
20260506183154 61 0 0.0 0.0 0.00 0.00 0.00 54 1013.3
20260506182654 61 77 0.0 0.9 0.00 0.00 0.00 56 1013.3
20260506182153 61 78 0.0 0.9 0.00 0.00 0.00 55 1013.4
20260506181654 61 51 0.0 2.6 0.00 0.00 0.00 56 1013.4
20260506181153 60 30 0.0 2.6 0.00 0.00 0.00 58 1013.5
20260506180654 61 328 0.0 0.9 0.00 0.00 0.00 58 1013.3
20260506180154 60 14 0.0 1.7 0.00 0.00 0.00 59 1013.6
20260506175653 60 25 0.0 1.7 0.00 0.00 0.00 57 1013.6
20260506175154 59 58 0.0 0.9 0.00 0.00 0.00 57 1013.7
20260506174655 60 58 0.0 0.9 0.00 0.00 0.00 58 1013.8
20260506174152 60 58 0.0 0.9 0.00 0.00 0.00 59 1013.9
20260506173654 60 58 0.0 0.9 0.00 0.00 0.00 56 1014.1
20260506173153 60 58 0.0 0.9 0.00 0.00 0.00 56 1014.1
20260506172654 60 17 0.0 1.7 0.00 0.00 0.00 55 1014.3
20260506172153 60 27 0.0 1.7 0.00 0.00 0.00 58 1014.4
20260506171656 59 79 0.0 0.9 0.00 0.00 0.00 58 1014.7
20260506171153 59 95 0.0 0.9 0.00 0.00 0.00 58 1014.6
20260506170654 59 95 0.0 0.9 0.00 0.00 0.00 58 1014.8
20260506170153 59 0 0.0 0.0 0.00 0.00 0.00 58 1014.8
20260506165652 58 0 0.0 0.0 0.00 0.00 0.00 60 1014.8
20260506165153 58 0 0.0 0.0 0.00 0.00 0.00 63 1014.7
20260506164652 57 0 0.0 0.0 0.00 0.00 0.00 60 1014.6
20260506164153 57 0 0.0 0.0 0.00 0.00 0.00 61 1014.6
20260506163653 57 0 0.0 0.0 0.00 0.00 0.00 61 1014.5
20260506163154 57 0 0.0 0.0 0.00 0.00 0.00 61 1014.5
20260506162653 56 0 0.0 0.0 0.00 0.00 0.00 60 1014.6
20260506162154 56 0 0.0 0.0 0.00 0.00 0.00 62 1014.6
20260506161653 55 0 0.0 0.0 0.00 0.00 0.00 63 1014.4
20260506161154 55 0 0.0 0.0 0.00 0.00 0.00 63 1014.5
20260506160653 55 0 0.0 0.0 0.00 0.00 0.00 62 1014.3
20260506160152 55 0 0.0 0.0 0.00 0.00 0.00 63 1014.3
20260506155653 55 61 0.0 0.9 0.00 0.00 0.00 62 1014.2
20260506155153 56 61 0.0 0.9 0.00 0.00 0.00 61 1014.0
20260506154654 56 0 0.0 0.0 0.00 0.00 0.00 62 1013.9
20260506154153 56 0 0.0 0.0 0.00 0.00 0.00 64 1013.6
20260506153654 55 0 0.0 0.0 0.00 0.00 0.00 65 1013.3
20260506153153 55 85 0.0 2.6 0.00 0.00 0.00 63 1013.1
20260506152153 55 77 0.0 1.7 0.00 0.00 0.00 65 1012.9
20260506151654 55 66 0.0 0.9 0.00 0.00 0.00 65 1012.9
20260506151153 55 66 0.0 0.9 0.00 0.00 0.00 64 1012.8
20260506150654 54 86 0.0 1.7 0.00 0.00 0.00 67 1013.0
20260506150153 54 83 0.0 1.7 0.00 0.00 0.00 70 1013.0
20260506145654 53 81 0.0 1.7 0.00 0.00 0.00 68 1013.2
20260506145154 53 76 0.0 0.9 0.00 0.00 0.00 68 1013.3
20260506144652 53 74 0.0 4.3 0.00 0.00 0.00 69 1013.2
20260506144153 52 83 0.0 4.3 0.00 0.00 0.00 70 1013.1
20260506143652 52 80 0.0 2.6 0.00 0.00 0.00 69 1012.9
20260506143154 52 60 0.0 1.7 0.00 0.00 0.00 69 1012.9